#timestamp,LO_Frequency,Hit,StdDev 
1456729215.5,286047003.8,P
1456729235.4,286047004.3,P
1456729255.2,286047002.6,Y
1456729275.0,286046997.5,P
1456729275.9,286046997.5,N
1456729295.8,286046994.9,N
1456729315.6,286046997.6,N
1456729335.4,286046995.5,N
1456729355.3,286046996.3,N
1456729375.1,286046996.1,N
1456729376.0,286046996.1,N
1456729395.8,286046996.3,N
1456729415.7,286046996.1,N
1456729435.5,286046995.1,N
1456729455.3,286046996.9,N
1456729475.1,286046999.0,N
1456729495.9,286046996.7,N
1456729515.7,286046998.7,N
1456729535.5,286046996.6,N
1456729555.4,286046995.9,N
1456729575.2,286046994.3,N
1456729595.0,286046993.7,Y
1456729595.9,286046993.7,P
1456729615.8,286046995.5,N
1456729635.6,286046995.4,P
1456729655.4,286046996.8,N
1456729675.3,286046999.6,N
1456729695.1,286046999.3,N
1456729696.0,286046999.3,N
1456729715.8,286046998.4,N
1456729735.7,286046997.0,N
1456729755.5,286046996.5,N
1456729775.3,286046998.8,N
1456729795.2,286047001.2,N
1456729815.9,286047000.0,N
1456729835.7,286046998.7,N
1456729855.5,286047001.2,N
1456729875.4,286046999.1,N
1456729895.2,286046999.3,N
1456729915.0,286046999.6,N
1456729915.9,286046999.6,N
1456729935.8,286046997.7,N
1456729955.6,286046997.5,N
1456729975.4,286046997.6,N
1456729995.3,286047000.8,N
1456730015.1,286046999.7,N
1456730016.0,286046999.7,N
1456730035.8,286047002.8,N
1456730055.7,286047004.4,N
1456730075.5,286047004.0,N
1456730095.3,286047004.2,N
1456730115.2,286047002.8,N
1456730135.9,286046998.4,N
1456730155.7,286046998.4,N
1456730175.5,286046996.8,N
1456730195.4,286046996.1,N
1456730215.2,286046994.0,N
1456730235.0,286046996.2,N
1456730235.9,286046996.2,N
1456730255.8,286046997.0,N
1456730275.6,286046998.1,N
1456730295.4,286046995.1,N
1456730315.3,286046995.6,N
1456730335.1,286046997.8,N
1456730355.8,286047001.0,N
1456730375.7,286047003.9,N
1456730395.5,286047002.3,N
1456730415.3,286047001.5,N
1456730435.2,286047002.4,N
1456730455.9,286047001.3,N
1456730475.7,286047005.8,N
1456730495.6,286047003.5,N
1456730515.4,286047003.4,N
1456730535.2,286047002.4,N
1456730555.0,286047000.5,N
1456730555.9,286047000.5,N
1456730575.8,286047000.2,N
1456730595.6,286046999.6,N
1456730615.4,286046999.2,N
1456730635.3,286046999.1,N
1456730655.1,286046996.5,N
1456730675.8,286046996.0,N
1456730695.7,286046993.4,N
1456730715.5,286046995.7,N
1456730735.3,286046996.2,N
1456730755.2,286046997.9,N
1456730775.9,286046994.1,N
1456730795.7,286046992.4,N
1456730815.6,286046991.7,N
1456730835.4,286046994.4,N
1456730855.2,286046992.3,N
1456730875.1,286046992.2,N
1456730876.0,286046992.2,N
1456730895.8,286046991.2,N
1456730915.6,286046993.0,N
1456730935.4,286046994.8,N
1456730955.3,286046993.6,N
1456730975.1,286046995.4,N
1456730995.8,286046997.9,N
1456731015.7,286046995.1,N
1456731035.5,286046995.9,N
1456731055.3,286046998.0,N
1456731075.2,286046995.0,N
1456731095.9,286046996.9,N
1456731115.7,286046998.5,N
1456731135.6,286047001.2,N
1456731155.4,286046999.6,N
1456731175.2,286047000.1,N
1456731195.1,286047000.4,N
1456731196.0,286047000.4,N
1456731215.8,286046999.8,N
1456731235.6,286047003.8,N
1456731255.5,286047005.4,N
1456731275.3,286047004.8,N
1456731295.1,286047005.5,N
1456731315.9,286047005.8,N
1456731335.7,286047003.8,N
1456731355.5,286047001.8,N
1456731375.3,286047002.5,N
1456731395.2,286047001.4,N
1456731415.0,286047000.0,N
1456731415.9,286047000.0,N
1456731435.7,286047000.9,N
1456731455.6,286047001.1,N
1456731475.4,286046998.3,N
1456731495.2,286047000.4,N
1456731515.1,286047001.9,N
1456731516.0,286047001.9,N
1456731535.8,286047002.4,N
1456731555.6,286047002.7,N
1456731575.5,286046998.3,N
1456731595.3,286046998.2,N
1456731615.1,286047002.2,N
1456731635.9,286047001.7,N
1456731655.7,286047001.9,N
1456731675.5,286047002.5,N
1456731695.4,286047003.8,N
1456731715.2,286047002.7,N
1456731735.0,286047000.2,N
1456731735.9,286047000.2,N
1456731755.7,286046999.3,N
1456731775.6,286047002.1,N
1456731795.4,286047003.5,N
1456731815.2,286047003.1,N
1456731835.1,286047005.3,N
1456731836.0,286047005.3,N
1456731855.8,286047005.9,Y
1456731875.6,286047002.6,P
1456731895.5,286047000.6,N
1456731915.3,286047002.8,P
1456731935.1,286047002.8,Y
1456731955.9,286046998.2,P
1456731975.7,286047002.8,N
1456731995.5,286047000.1,N
1456732015.4,286047002.7,N
1456732035.2,286047004.0,N
1456732055.0,286047001.5,N
1456732055.9,286047001.5,N
1456732075.8,286047001.2,N
1456732095.6,286047000.5,N
1456732115.4,286046997.9,N
1456732135.3,286046997.4,N
1456732155.1,286046996.2,N
1456732156.0,286046996.2,N
1456732175.8,286046997.0,N
1456732195.7,286046997.7,N
1456732215.5,286046998.6,N
1456732235.3,286047001.7,N
1456732255.1,286047002.3,N
1456732275.9,286047000.8,N
1456732295.7,286046997.1,N
1456732315.5,286046997.2,N
1456732335.4,286046999.0,N
1456732355.2,286046998.1,N
1456732375.0,286046999.9,N
1456732375.9,286046999.9,N
1456732395.8,286046998.3,N
1456732415.6,286046996.6,N
1456732435.4,286046999.2,N
1456732455.3,286047001.9,N
1456732475.1,286047002.2,N
1456732476.0,286047002.2,N
1456732495.8,286047000.4,N
1456732515.7,286047001.3,N
1456732535.5,286047000.1,N
1456732555.3,286047004.2,N
1456732575.1,286047001.1,N
1456732595.9,286047000.6,N
1456732615.7,286046998.5,N
1456732635.5,286046998.8,N
1456732655.4,286046997.1,N
1456732675.2,286046996.2,N
1456732695.0,286046991.7,Y
1456732696.0,286046991.7,P
1456732715.8,286046993.1,N
1456732735.6,286046992.3,N
1456732755.4,286046996.0,N
1456732775.3,286046993.5,N
1456732795.1,286046997.6,N
